Weather History for Roseburg, OR

Change the Weather History Date:

Tuesday, January 7, 2014

  Actual Average Record
Temperature  
Mean Temperature 47 °F 42 °F  
Max Temperature 54 °F 49 °F 64 °F (2002)
Min Temperature 40 °F 36 °F 11 °F (1937)
Degree Days  
Heating Degree Days 18 23  
Month to date heating degree days 184 161  
Since 1 July heating degree days 1967 1801  
Cooling Degree Days 0 0  
Month to date cooling degree days 0 0  
Year to date cooling degree days 0 0  
Moisture  
Dew Point 41 °F    
Average Humidity 82    
Maximum Humidity 93    
Minimum Humidity 71    
Precipitation  
Precipitation 0.07 in 0.21 in 1.36 in (1950)
Month to date precipitation 0.21 1.50  
Year to date precipitation 0.21 1.50  
Sea Level Pressure  
Sea Level Pressure 30.13 in    
Wind  
Wind Speed 1 mph (SSW)    
Max Wind Speed 6 mph    
Max Gust Speed 9 mph    
Visibility 5 miles    
Events Rain    
T = Trace of Precipitation, MM = Missing Value Source: NWS Daily Summary

Daily Weather History Graph

Daily Weather History Graph

Search for Another Location

Airport:

Trip Planner

Search our weather history database for the weather conditions in past years. The results will help you decide how hot, cold, wet, or windy it might be!

Date:

Astronomy

Jan. 07, 2014 Rise Set
Actual Time 7:45 AM PST 4:54 PM PST
Civil Twilight 7:13 AM PST 5:26 PM PST
Nautical Twilight 6:37 AM PST 6:02 PM PST
Astronomical Twilight 6:03 AM PST 6:36 PM PST
Moon 11:24 AM PST (1/7) No Moon Set
Length of Visible Light 10h 13m
Length of Day
9h 09m
Waxing Crescent, 46% of the Moon is Illuminated
Jan 7
Waxing Crescent
Jan 7
First Quarter
Jan 15
Full
Jan 23
Last Quarter
Jan 30
New

Hourly Weather History & Observations

Time (PST) Temp. Windchill Dew Point Humidity Pressure Visibility Wind Dir Wind Speed Gust Speed Precip Events Conditions
12:53 AM 41.0 °F - 37.9 °F 89% 30.18 in 2.5 mi Calm Calm - N/A   Overcast
1:24 AM 39.9 °F - 37.9 °F 93% 30.16 in 1.5 mi Calm Calm - N/A   Overcast
1:35 AM 39.9 °F 36.7 °F 37.9 °F 93% 30.16 in 1.8 mi SSW 4.6 mph - N/A   Overcast
1:44 AM 39.9 °F - 37.9 °F 93% 30.16 in 2.0 mi Calm Calm - N/A   Overcast
1:53 AM 39.9 °F - 37.9 °F 93% 30.18 in 2.5 mi Calm Calm - N/A   Overcast
2:12 AM 39.9 °F - 37.9 °F 93% 30.17 in 3.0 mi Calm Calm - N/A   Overcast
2:23 AM 39.9 °F - 37.9 °F 93% 30.17 in 2.5 mi Calm Calm - N/A   Overcast
2:53 AM 41.0 °F - 37.9 °F 89% 30.19 in 2.5 mi Calm Calm - N/A   Overcast
3:02 AM 41.0 °F - 37.9 °F 89% 30.18 in 3.0 mi Calm Calm - N/A   Overcast
3:18 AM 39.9 °F - 37.9 °F 93% 30.18 in 2.5 mi Calm Calm - N/A   Overcast
3:31 AM 41.0 °F - 37.9 °F 89% 30.18 in 3.0 mi Calm Calm - N/A   Overcast
3:41 AM 41.0 °F 39.0 °F 37.9 °F 89% 30.17 in 2.5 mi ENE 3.5 mph - N/A   Overcast
3:53 AM 41.0 °F - 37.9 °F 89% 30.18 in 2.5 mi Calm Calm - N/A   Overcast
4:04 AM 41.0 °F - 39.0 °F 93% 30.16 in 3.0 mi Calm Calm - N/A   Overcast
4:11 AM 41.0 °F - 39.0 °F 93% 30.16 in 2.5 mi Calm Calm - N/A   Overcast
4:53 AM 41.0 °F 39.0 °F 37.9 °F 89% 30.14 in 2.0 mi NNE 3.5 mph - N/A   Overcast
5:29 AM 41.0 °F 39.0 °F 39.0 °F 93% 30.13 in 1.8 mi SW 3.5 mph - N/A   Overcast
5:37 AM 41.0 °F - 39.0 °F 93% 30.13 in 2.0 mi Calm Calm - N/A   Overcast
5:53 AM 41.0 °F - 39.0 °F 93% 30.14 in 2.0 mi Calm Calm - N/A   Overcast
6:53 AM 41.0 °F 39.0 °F 39.0 °F 93% 30.12 in 3.0 mi SSW 3.5 mph - N/A   Overcast
7:04 AM 41.0 °F - 39.0 °F 93% 30.10 in 2.5 mi Calm Calm - N/A   Overcast
7:46 AM 42.1 °F - 39.0 °F 89% 30.10 in 3.0 mi Calm Calm - N/A   Overcast
7:53 AM 42.1 °F - 39.0 °F 89% 30.12 in 3.0 mi Calm Calm - N/A   Overcast
8:04 AM 42.1 °F - 39.0 °F 89% 30.10 in 2.0 mi Calm Calm - N/A   Overcast
8:48 AM 42.8 °F - 39.2 °F 87% 30.12 in 3.0 mi Calm Calm - N/A   Overcast
8:53 AM 43.0 °F - 39.9 °F 89% 30.13 in 3.0 mi Calm Calm - N/A   Overcast
9:01 AM 43.0 °F - 39.9 °F 89% 30.12 in 2.5 mi Calm Calm - N/A   Overcast
9:10 AM 43.0 °F - 39.9 °F 89% 30.12 in 3.0 mi Calm Calm - 0.00 in Rain Light Rain
9:53 AM 45.0 °F - 41.0 °F 86% 30.12 in 5.0 mi Calm Calm - 0.00 in   Overcast
10:53 AM 46.9 °F - 42.1 °F 83% 30.12 in 6.0 mi Calm Calm - N/A   Haze
11:53 AM 50.0 °F - 42.1 °F 74% 30.09 in 10.0 mi Calm Calm - N/A   Overcast
12:53 PM 52.0 °F - 44.1 °F 74% 30.06 in 10.0 mi North 3.5 mph - N/A   Overcast
1:53 PM 53.1 °F - 45.0 °F 74% 30.06 in 10.0 mi Calm Calm - 0.00 in   Overcast
2:46 PM 52.0 °F - 45.0 °F 77% 30.07 in 2.5 mi WSW 3.5 mph - 0.01 in Rain Light Rain
2:53 PM 52.0 °F - 45.0 °F 77% 30.08 in 8.0 mi SSW 3.5 mph - 0.01 in Rain Light Rain
3:53 PM 53.1 °F - 45.0 °F 74% 30.10 in 10.0 mi Calm Calm - 0.01 in   Overcast
4:53 PM 53.1 °F - 44.1 °F 71% 30.10 in 10.0 mi Calm Calm - N/A   Overcast
5:09 PM 52.0 °F - 45.0 °F 77% 30.09 in 10.0 mi SSE 3.5 mph - 0.00 in Rain Light Rain
5:50 PM 50.0 °F - 44.6 °F 82% 30.09 in 10.0 mi Calm Calm - 0.00 in   Overcast
5:53 PM 50.0 °F - 45.0 °F 83% 30.10 in 10.0 mi Calm Calm - 0.00 in   Overcast
6:37 PM 50.0 °F - 45.0 °F 83% 30.09 in 10.0 mi Calm Calm - N/A   Overcast
6:53 PM 50.0 °F - 45.0 °F 83% 30.10 in 10.0 mi SW 3.5 mph - 0.00 in Rain Light Rain
7:17 PM 50.0 °F - 45.0 °F 83% 30.10 in 7.0 mi Calm Calm - 0.00 in Rain Light Rain
7:53 PM 48.9 °F - 45.0 °F 86% 30.12 in 9.0 mi Calm Calm - 0.00 in   Overcast
8:53 PM 48.9 °F - 45.0 °F 86% 30.13 in 10.0 mi SSE 3.5 mph - 0.01 in   Overcast
9:53 PM 48.0 °F - 45.0 °F 89% 30.14 in 7.0 mi Calm Calm - 0.01 in   Overcast
10:53 PM 48.0 °F - 45.0 °F 89% 30.15 in 4.0 mi Calm Calm - 0.01 in Rain Light Rain
11:53 PM 46.9 °F - 45.0 °F 93% 30.14 in 5.0 mi Calm Calm - 0.02 in Rain Light Rain